INMARSAT 6-F1 (50319 NORAD) Tracking and Keplerian Element Data

This shows tracking and keplerian element data for the satellite.

Feedback or suggestion? Click here.




ElementValue
Catalog50319
NameINMARSAT 6-F1
Epoch Orbit137
Epoch Day140.46597358
Epoch Year2022
RAAN356.527
Inclination2.3514
Eccentricity0.3216919
Argument of Perigee185.1223
Mean Anonmoly102.6517
Mean Motion0.88913744
Decay Rate-1.81E-06
L11 50319U 21128A 22140.46597358 -.00000181 00000+0 00000+0 0 9997
L22 50319 2.3514 356.5270 3216919 185.1223 102.6517 0.88913744 1373

Live tracking and technical data element details for INMARSAT 6-F1 (NORAD 50319). INMARSAT 6-F1 can be tracked NOW for your location showing map with azimuth and elevation plus other details from your city location.

Track the satellite on the map from your city or location and see movement details for azimuth, elevation, latitude, longitude, range, height, and movement on the map or in text.







IsCatalogInMostPopularTable: catalog: 50319, numindb: 20
Update: records affected: 1



GetName: 50319 INMARSAT 6-F1

Hit Count: updated at: Sun, 22 May 2022 05:35:56 GMT